(174130) = 2002 LL27

Discovered at Socorro on 2002-06-08 by LINEAR.

Orbit

Orbit type: Main Belt

Note: WebGL enabled browser required.

epoch2023-09-13.0
epoch JD2460200.5
perihelion date2023-01-28.78400
perihelion JD2459973.28400
argument of perihelion (°)145.36028
ascending node (°)98.02124
inclination (°)8.86776
eccentricity0.1749498
perihelion distance (AU)1.8961313
Tisserand w.r.t. Jupiter3.6
ΔV w.r.t. Earth (km/sec)8.9
semimajor axis (AU)2.2982011
mean anomaly (°)64.27776
mean daily motion (°/day)0.28289270
aphelion distance (AU)2.700
period (years)3.48
P-vector [x]-0.44131966
P-vector [y]-0.85422269
P-vector [z]-0.27484642
Q-vector [x]0.88427149
Q-vector [y]-0.36188482
Q-vector [z]-0.29513270
absolute magnitude16.91
phase slope0.15
uncertainty0
referenceMPEC 2024-A48
observations used507
oppositions15
arc length (days)7791
first opposition used2002
last opposition used2023
residual rms (arc-secs)0.74
perturbers coarse indicatorM-v
perturbers precise indicator003Ek
first observation date used2002-06-08.0
last observation date used2023-10-07.0
computer nameMPCLINUX
JD of orbit computation2456966.910722
perihelion JD uncertainty (days)7.5377E-05
argument of perihelion uncertainty (°)4.8650E-05
ascending node uncertainty (°)4.4603E-05
inclination uncertainty (°)5.0938E-06
eccentricity uncertainty 6.2895E-08
perihelion distance uncertainty (AU)1.5037E-07
Minimum Orbit Intersection Distances (in AU)
for orbit epoch: 2460200.5, reference: E2024-A48
Mercury1.43612
Venus1.17404
Earth0.8889
Mars0.40416
Jupiter2.33511
Saturn6.37807
Uranus16.1714
Neptune27.1895

Observations

509 total observations over interval: 2002 06 08.38177 – 2023 10 07.261742
These data are available for download (format description).

Date (UT) J2000 RA J2000 Dec Magn Location Ref
2002 06 08.38177 20 26 54.95 -20 13 42.1 19.6   704 – Lincoln Laboratory ETS, New Mexico MPS 57884
2002 06 08.39568 20 26 55.10 -20 13 48.1 19.7   704 – Lincoln Laboratory ETS, New Mexico MPS 57884
2002 06 08.40972 20 26 55.17 -20 13 53.4 20.4   704 – Lincoln Laboratory ETS, New Mexico MPS 57884
2002 06 08.42367 20 26 55.16 -20 13 58.4 20.2   704 – Lincoln Laboratory ETS, New Mexico MPS 57884
2002 06 10.37331 20 27 04.31 -20 26 51.0 19.3   704 – Lincoln Laboratory ETS, New Mexico MPS 57884
2002 06 10.38564 20 27 04.32 -20 26 56.3 19.0   704 – Lincoln Laboratory ETS, New Mexico MPS 57884
2002 06 10.39468 20 27 04.26 -20 26 59.5 19.6   704 – Lincoln Laboratory ETS, New Mexico MPS 57884
2002 06 10.39913 20 27 04.36 -20 27 01.2 19.3   704 – Lincoln Laboratory ETS, New Mexico MPS 57884
2002 06 10.40527 20 27 04.27 -20 27 04.1 19.8   704 – Lincoln Laboratory ETS, New Mexico MPS 57884
2002 06 10.41347 20 27 04.32 -20 27 07.5 19.2   704 – Lincoln Laboratory ETS, New Mexico MPS 57884
2002 06 10.41588 20 27 04.29 -20 27 08.5 19.9   704 – Lincoln Laboratory ETS, New Mexico MPS 57884
2002 06 12.43461 20 27 04.47 -20 41 14.6 19.8   644 – Palomar Mountain/NEAT MPS 57884
2002 06 12.44508 20 27 04.41 -20 41 19.3 19.9   644 – Palomar Mountain/NEAT MPS 57884
2002 06 12.45548 20 27 04.36 -20 41 23.4 19.9   644 – Palomar Mountain/NEAT MPS 57884
2002 06 17.44819 20 26 25.23 -21 19 34.3 20.2   644 – Palomar Mountain/NEAT MPS 57884
2002 06 17.45857 20 26 25.09 -21 19 39.1 19.6   644 – Palomar Mountain/NEAT MPS 57884
2002 06 17.46898 20 26 24.91 -21 19 44.3 19.6   644 – Palomar Mountain/NEAT MPS 57884
2002 07 12.28820 20 10 56.68 -25 13 31.6 18.6   644 – Palomar Mountain/NEAT MPS 59024
2002 07 12.36032 20 10 52.40 -25 14 14.2 18.5   644 – Palomar Mountain/NEAT MPS 59024
2002 07 12.42662 20 10 48.48 -25 14 52.6 18.7   644 – Palomar Mountain/NEAT MPS 59024
2005 03 09.47528 12 46 37.74 +12 39 07.4 19.7   704 – Lincoln Laboratory ETS, New Mexico MPS 129001
2005 03 09.48695 12 46 37.43 +12 39 13.4 19.7   704 – Lincoln Laboratory ETS, New Mexico MPS 129001
2005 03 09.49895 12 46 36.98 +12 39 20.0 19.8   704 – Lincoln Laboratory ETS, New Mexico MPS 129001
2005 03 10.31501 12 46 05.79 +12 46 58.0 19.3 R 699 – Lowell Observatory-LONEOS MPS 129001
2005 03 10.33446 12 46 04.96 +12 47 08.8   699 – Lowell Observatory-LONEOS MPS 129001
2005 03 10.35392 12 46 04.04 +12 47 20.4   699 – Lowell Observatory-LONEOS MPS 129001
2005 03 10.37340 12 46 03.31 +12 47 31.3   699 – Lowell Observatory-LONEOS MPS 129001
2005 03 16.41366 12 41 36.94 +13 42 31.7 18.4   704 – Lincoln Laboratory ETS, New Mexico MPS 129001
2005 03 16.42531 12 41 36.36 +13 42 37.7 18.7   704 – Lincoln Laboratory ETS, New Mexico MPS 129001
2005 03 16.43700 12 41 35.78 +13 42 44.1 18.7   704 – Lincoln Laboratory ETS, New Mexico MPS 129001
2005 03 16.44921 12 41 35.19 +13 42 50.4 18.6   704 – Lincoln Laboratory ETS, New Mexico MPS 129001
2005 03 21.26740 12 37 31.31 +14 23 39.8 18.4   704 – Lincoln Laboratory ETS, New Mexico MPS 129981
2005 03 21.27806 12 37 30.75 +14 23 43.7 18.6   704 – Lincoln Laboratory ETS, New Mexico MPS 129981
2005 03 21.28954 12 37 30.06 +14 23 49.9 18.7   704 – Lincoln Laboratory ETS, New Mexico MPS 129981
2005 03 21.30063 12 37 29.43 +14 23 55.7 18.6   704 – Lincoln Laboratory ETS, New Mexico MPS 129981
2005 03 21.31132 12 37 28.83 +14 24 01.2 18.2   704 – Lincoln Laboratory ETS, New Mexico MPS 129981
2005 04 02.33982 12 26 18.37 +15 43 59.8 18.6 R 699 – Lowell Observatory-LONEOS MPS 130675
2005 04 02.34265 12 26 18.10 +15 44 01.6 18.1 R 703 – Catalina Sky Survey MPS 130187
2005 04 02.35066 12 26 17.59 +15 44 04.6 18.2 R 703 – Catalina Sky Survey MPS 130187
2005 04 02.35868 12 26 17.15 +15 44 05.9 18.4 R 703 – Catalina Sky Survey MPS 130187
2005 04 02.36253 12 26 17.02 +15 44 06.7   699 – Lowell Observatory-LONEOS MPS 130675
2005 04 02.36674 12 26 16.74 +15 44 08.9 18.0 R 703 – Catalina Sky Survey MPS 130187
2005 04 02.38531 12 26 15.63 +15 44 14.0   699 – Lowell Observatory-LONEOS MPS 130675
2005 04 02.40811 12 26 14.28 +15 44 20.8   699 – Lowell Observatory-LONEOS MPS 130675
2005 04 16.28541 12 14 22.47 +16 20 48.1 19.2 R 703 – Catalina Sky Survey MPS 132556
2005 04 16.29514 12 14 22.01 +16 20 47.6 19.1 R 703 – Catalina Sky Survey MPS 132556
2005 04 16.30500 12 14 21.54 +16 20 47.5 18.8 R 703 – Catalina Sky Survey MPS 132556
2005 04 16.31493 12 14 21.04 +16 20 47.4 18.6 R 703 – Catalina Sky Survey MPS 132556
2006 09 18.30976 01 36 37.40 -05 14 39.7 20.4 V 703 – Catalina Sky Survey MPS 179181
2006 09 18.31620 01 36 37.00 -05 14 42.9 20.1 V 703 – Catalina Sky Survey MPS 179181
2006 09 18.32266 01 36 36.79 -05 14 46.1 20.7 V 703 – Catalina Sky Survey MPS 179181
2006 09 18.32914 01 36 36.50 -05 14 50.4 19.8 V 703 – Catalina Sky Survey MPS 179181
2007 11 11.40777 08 07 30.54 +20 18 07.7 22.2 V G96 – Mt. Lemmon Survey MPS 226740
2007 11 11.41500 08 07 30.75 +20 18 08.4 22.0 V G96 – Mt. Lemmon Survey MPS 226740
2007 11 11.42214 08 07 30.90 +20 18 09.4 21.7 V G96 – Mt. Lemmon Survey MPS 226740
2007 11 11.42928 08 07 31.11 +20 18 09.7 21.7 V G96 – Mt. Lemmon Survey MPS 226740
2007 12 03.47898 08 10 58.10 +21 13 03.2 21.3 V 691 – Steward Observatory, Kitt Peak-Spacewatch MPS 229720
2007 12 03.49661 08 10 57.90 +21 13 07.5 20.9 V 691 – Steward Observatory, Kitt Peak-Spacewatch MPS 229720
2007 12 03.51424 08 10 57.68 +21 13 11.4 21.2 V 691 – Steward Observatory, Kitt Peak-Spacewatch MPS 229720
2008 01 04.90281 07 49 46.18 +24 14 03.9 20.0 V A50 – Andrushivka Astronomical Observatory MPS 234151
2008 01 04.90425 07 49 46.16 +24 14 03.8 19.6 V A50 – Andrushivka Astronomical Observatory MPS 234151
2008 01 04.90569 07 49 46.09 +24 14 04.4 19.5 V A50 – Andrushivka Astronomical Observatory MPS 234151
2008 01 04.92530 07 49 44.73 +24 14 13.0 19.9 V A50 – Andrushivka Astronomical Observatory MPS 234151
2008 01 15.19198 07 38 09.27 +25 19 52.7 20.0 V G96 – Mt. Lemmon Survey MPS 234151
2008 01 15.19832 07 38 08.84 +25 19 56.7 20.5 V G96 – Mt. Lemmon Survey MPS 234151
2008 01 15.20460 07 38 08.37 +25 19 57.5 19.8 V G96 – Mt. Lemmon Survey MPS 234151
2008 01 15.21105 07 38 07.90 +25 20 00.0 19.9 V G96 – Mt. Lemmon Survey MPS 234151
2008 01 16.15599 07 37 01.92 +25 25 45.2 19.8 V 691 – Steward Observatory, Kitt Peak-Spacewatch MPS 234151
2008 01 16.17412 07 37 00.53 +25 25 52.1 20.0 V 691 – Steward Observatory, Kitt Peak-Spacewatch MPS 234151
2008 01 16.19225 07 36 59.22 +25 25 59.0 20.1 V 691 – Steward Observatory, Kitt Peak-Spacewatch MPS 234151
2008 01 20.17781 07 32 20.85 +25 49 26.5 20.1 V 691 – Steward Observatory, Kitt Peak-Spacewatch MPS 235032
2008 01 20.19619 07 32 19.53 +25 49 33.1 20.9 V 691 – Steward Observatory, Kitt Peak-Spacewatch MPS 235032
2008 01 20.21434 07 32 18.21 +25 49 39.5 20.1 V 691 – Steward Observatory, Kitt Peak-Spacewatch MPS 235032
2008 02 12.11934 07 09 57.53 +27 29 38.8 20.2 V 691 – Steward Observatory, Kitt Peak-Spacewatch MPS 239117
2008 02 12.14067 07 09 56.61 +27 29 42.9 20.2 V 691 – Steward Observatory, Kitt Peak-Spacewatch MPS 239117
2008 02 12.16201 07 09 55.69 +27 29 46.7 20.3 V 691 – Steward Observatory, Kitt Peak-Spacewatch MPS 239117
2009 07 29.28530 20 29 09.27 -27 06 54.0 19.1 V 703 – Catalina Sky Survey MPS 291378
2009 07 29.28896 20 29 08.95 -27 06 56.4 18.7 V 703 – Catalina Sky Survey MPS 291378
2009 07 29.29250 20 29 08.77 -27 06 58.0 18.7 V 703 – Catalina Sky Survey MPS 291378
2009 07 29.29616 20 29 08.55 -27 06 59.0 18.8 V 703 – Catalina Sky Survey MPS 291378
2010 11 17.507289 04 32 23.432 +13 57 12.03 20.34 i F51 – Pan-STARRS 1, Haleakala MPS 365025
2010 11 17.518989 04 32 22.712 +13 57 11.72 20.44 i F51 – Pan-STARRS 1, Haleakala MPS 365025
2010 12 01.24436 04 17 24.90 +13 51 33.6 19.9 V G96 – Mt. Lemmon Survey MPS 362236
2010 12 01.25120 04 17 24.39 +13 51 33.4 19.8 V G96 – Mt. Lemmon Survey MPS 362236
2010 12 01.25811 04 17 23.89 +13 51 33.6 19.8 V G96 – Mt. Lemmon Survey MPS 362236
2010 12 01.26492 04 17 23.49 +13 51 33.8 20.0 V G96 – Mt. Lemmon Survey MPS 362236
2010 12 09.87322 04 08 04.45 +13 53 34.2 20.1 V A13 – Observatoire Naef, Ependes MPS 362236
2010 12 09.89431 04 08 03.08 +13 53 34.7 20.5 V A13 – Observatoire Naef, Ependes MPS 362236
